Location: Maccacari
(45.1333°N, 11.1333°E)
Time: 06:50:44
(UTC+00:00)

SR - Pass Details

Date: 26 January 2021
Orbit: 573 x 882 km, 66.7° (Epoch: 06 March)

Event Time Altitude Azimuth Distance (km) Brightness Sun altitude
Exits shadow 05:33:33 14° 309° (NW) 1,987 ? -12.2°
Maximum altitude 05:35:03 16° 329° (NNW) 1,923 ? -11.9°
Drops below altitude 10° 05:38:15 10° 5° (N) 2,354 ? -11.3°
Sets 05:41:49 0° 27° (NNE) 3,351 ? -10.7°
